Forks, WA

9:36 AM PST on February 26, 2017 (GMT -0800)
Quillayute

Weather History for KUIL - November, 2011

Change the Weather History Date:

Saturday, November 26, 2011

  Actual Average Record
Temperature  
Mean Temperature 48 °F 42 °F  
Max Temperature 52 °F 48 °F 58 °F (1992)
Min Temperature 43 °F 36 °F 23 °F (2015)
Degree Days  
Heating Degree Days 17 23  
Month to date heating degree days 532  
Since 1 July heating degree days 1622  
Cooling Degree Days 0 0  
Month to date cooling degree days 0  
Year to date cooling degree days 19  
Moisture  
Dew Point 46 °F    
Average Humidity 91    
Maximum Humidity 100    
Minimum Humidity 80    
Precipitation  
Precipitation 0.43 in 0.52 in 1.81 in (1983)
Month to date precipitation 13.43  
Year to date precipitation 84.46  
Sea Level Pressure  
Sea Level Pressure 30.15 in    
Wind  
Wind Speed 12 mph (SSE)    
Max Wind Speed 20 mph    
Max Gust Speed 35 mph    
Visibility 6 miles    
Events Rain    
T = Trace of Precipitation, MM = Missing Value Source: NWS Daily Summary

Daily Weather History Graph

Daily Weather History Graph

Search for Another Location

Airport or City:

Trip Planner

Search our weather history database for the weather conditions in past years. The results will help you decide how hot, cold, wet, or windy it might be!

Date:

Astronomy

Nov. 26, 2011 Rise Set
Actual Time 7:40 AM PST 4:30 PM PST
Civil Twilight 7:05 AM PST 5:05 PM PST
Nautical Twilight 6:26 AM PST 5:44 PM PST
Astronomical Twilight 5:49 AM PST 6:21 PM PST
Moon 9:21 AM PST 6:04 PM PST
Length of Visible Light 10h 00m
Length of Day
8h 50m
Waxing Crescent, 4% of the Moon is Illuminated
Nov 26
Waxing Crescent
Dec 2
First Quarter
Dec 10
Full
Dec 17
Last Quarter
Dec 24
New

Hourly Weather History & Observations

Time (PST) Temp. Windchill Dew Point Humidity Pressure Visibility Wind Dir Wind Speed Gust Speed Precip Events Conditions
12:53 AM 43.0 °F 37.2 °F 39.9 °F 89% 30.25 in 3.0 mi SE 10.4 mph 21.9 mph 0.03 in Rain Light Rain
1:53 AM 44.1 °F 37.4 °F 39.9 °F 85% 30.23 in 10.0 mi SE 13.8 mph 27.6 mph 0.00 in   Overcast
2:02 AM 44.6 °F 38.8 °F 39.2 °F 81% 30.22 in 10.0 mi SE 11.5 mph 26.5 mph N/A   Overcast
2:53 AM 45.0 °F 37.6 °F 39.9 °F 82% 30.23 in 10.0 mi SSE 17.3 mph 26.5 mph 0.00 in   Overcast
3:53 AM 46.0 °F 39.6 °F 41.0 °F 83% 30.22 in 10.0 mi SSE 15.0 mph 23.0 mph 0.00 in   Overcast
4:53 AM 46.0 °F 41.0 °F 42.1 °F 86% 30.21 in 10.0 mi SSE 10.4 mph 20.7 mph 0.00 in   Overcast
5:53 AM 46.9 °F - 44.1 °F 90% 30.20 in 6.0 mi South 12.7 mph 21.9 mph 0.01 in Rain Light Rain
6:53 AM 46.9 °F - 45.0 °F 93% 30.20 in 9.0 mi SSE 13.8 mph 29.9 mph 0.03 in   Overcast
7:53 AM 48.0 °F - 46.0 °F 93% 30.21 in 8.0 mi South 9.2 mph 20.7 mph 0.04 in Rain Light Rain
8:07 AM 48.2 °F - 46.4 °F 93% 30.20 in 5.0 mi SSE 11.5 mph 21.9 mph 0.00 in Rain Light Rain
8:53 AM 48.0 °F - 46.9 °F 96% 30.21 in 5.0 mi South 11.5 mph 21.9 mph 0.01 in Rain Light Rain
9:05 AM 48.2 °F - 46.4 °F 93% 30.21 in 1.8 mi South 10.4 mph 29.9 mph 0.01 in Rain Light Rain
9:14 AM 48.2 °F - 46.4 °F 93% 30.20 in 3.0 mi South 12.7 mph 26.5 mph 0.01 in Rain Light Rain
9:53 AM 48.0 °F - 46.9 °F 96% 30.22 in 5.0 mi South 13.8 mph 27.6 mph 0.02 in Rain Light Rain
10:53 AM 48.9 °F - 46.9 °F 93% 30.20 in 7.0 mi South 17.3 mph 27.6 mph 0.00 in   Overcast
11:53 AM 50.0 °F - 46.9 °F 89% 30.19 in 10.0 mi South 17.3 mph 29.9 mph 0.00 in   Overcast
12:53 PM 50.0 °F - 48.0 °F 93% 30.17 in 9.0 mi SSE 15.0 mph 28.8 mph 0.01 in   Overcast
1:07 PM 50.0 °F - 48.2 °F 94% 30.16 in 9.0 mi South 10.4 mph 27.6 mph N/A   Overcast
1:53 PM 50.0 °F - 48.0 °F 93% 30.15 in 2.5 mi South 11.5 mph 26.5 mph 0.00 in Rain Light Rain
2:00 PM 50.0 °F - 48.2 °F 94% 30.14 in 7.0 mi South 12.7 mph 26.5 mph 0.00 in   Overcast
2:53 PM 51.1 °F - 46.9 °F 86% 30.12 in 4.0 mi South 10.4 mph 27.6 mph 0.00 in Rain Light Rain
3:02 PM 50.0 °F - 46.4 °F 87% 30.12 in 2.5 mi SSE 15.0 mph 26.5 mph 0.00 in Rain Light Rain
3:07 PM 50.0 °F - 48.2 °F 94% 30.12 in 1.8 mi SSE 11.5 mph 26.5 mph 0.00 in Rain Light Rain
3:18 PM 50.0 °F - 48.2 °F 94% 30.13 in 1.8 mi South 12.7 mph 25.3 mph 0.00 in Rain Light Rain
3:32 PM 48.2 °F - 48.2 °F 100% 30.12 in 2.0 mi SSE 12.7 mph 24.2 mph 0.01 in Rain Light Rain
3:36 PM 48.2 °F - 48.2 °F 100% 30.12 in 3.0 mi SSE 12.7 mph 24.2 mph 0.01 in Rain Light Rain
3:53 PM 48.9 °F - 48.0 °F 97% 30.12 in 3.0 mi SSE 10.4 mph 23.0 mph 0.02 in Rain Light Rain
3:55 PM 48.2 °F - 48.2 °F 100% 30.11 in 2.5 mi SSE 10.4 mph 23.0 mph 0.00 in Rain Light Rain
4:13 PM 50.0 °F - 48.2 °F 94% 30.10 in 5.0 mi SSE 16.1 mph 29.9 mph 0.01 in Rain Light Rain
4:53 PM 50.0 °F - 48.0 °F 93% 30.12 in 10.0 mi South 12.7 mph 25.3 mph 0.02 in   Overcast
5:53 PM 50.0 °F - 48.0 °F 93% 30.10 in 7.0 mi South 10.4 mph 32.2 mph 0.04 in Rain Light Rain
6:53 PM 51.1 °F - 46.9 °F 86% 30.09 in 10.0 mi SSE 9.2 mph 23.0 mph 0.03 in Rain Light Rain
7:53 PM 51.1 °F - 45.0 °F 80% 30.07 in 10.0 mi South 10.4 mph 20.7 mph 0.01 in Rain Light Rain
8:53 PM 51.1 °F - 46.9 °F 86% 30.05 in 10.0 mi South 10.4 mph 21.9 mph 0.01 in Rain Light Rain
9:53 PM 50.0 °F - 46.9 °F 89% 30.02 in 10.0 mi SSE 13.8 mph 24.2 mph 0.04 in Rain Light Rain
10:53 PM 50.0 °F - 48.0 °F 93% 30.01 in 7.0 mi South 8.1 mph 24.2 mph 0.02 in Rain Light Rain
11:30 PM 50.0 °F - 48.2 °F 94% 30.01 in 4.0 mi SSE 13.8 mph 25.3 mph 0.06 in Rain Light Rain
11:53 PM 50.0 °F - 48.9 °F 96% 30.00 in 3.0 mi South 11.5 mph 28.8 mph 0.09 in Rain Light Rain